QPF
0.00 0.00 0.00 0.01 0.00 0.00 0.00 0.00 0.00 0.00 0.00 0.00 0.00 0.00 0.00 0.00 0.00 0.00 0.00 0.00 0.00 0.00 0.00 0.00 0.00 0.00 0.00 0.00 0.00 0.00 0.00 0.00 0.00 0.00 0.00 0.00 0.00 0.00 0.00 0.00 0.00 0.00 0.00 0.00 0.00 0.00 0.00 0.00 0.00 0.00 0.00 0.00
0.00 0.00 0.00 0.00 0.00 0.00 0.00 0.00 0.00 0.00 0.00 0.00 0.00 0.00 0.00 0.00 0.00 0.00 0.00 0.00 0.00 0.00 0.00 0.00 0.00 0.00 0.00 0.00 0.00 0.00 0.00 0.00 0.00 0.00 0.00 0.00 0.00 0.00 0.00 0.00 0.00 0.00 0.00 0.00 0.00 0.00 0.00 0.00 0.00 0.00 0.00 0.00
0.00 0.00 0.00 0.00 0.00 0.00 0.00 0.00 0.00 0.00 0.00 0.00 0.00 0.00 0.00 0.00 0.00 0.00 0.00 0.00 0.00 0.00 0.00 0.00 0.00 0.00 0.00 0.00 0.00 0.00 0.00 0.00 0.00 0.00 0.00 0.00 0.00 0.00 0.00 0.00 0.00 0.00 0.00 0.00 0.00 0.00 0.00 0.00 0.00 0.00 0.00 0.00
0.00 0.00 0.00 0.00 0.00 0.00 0.00 0.00 0.00 0.00 0.00 0.00 0.00 0.00 0.00 0.00 0.00 0.00 0.00 0.00 0.00 0.00 0.00 0.00 0.00 0.00 0.00 0.00 0.00 0.00 0.00 0.00 0.00 0.00 0.00 0.00 0.00 0.00 0.00 0.00 0.00 0.00 0.00 0.00 0.00 0.00 0.00 0.00 0.00 0.00 0.00 0.00
0.00 0.00 0.00 0.00 0.00 0.00 0.00 0.00 0.00 0.00 0.00 0.00 0.00 0.00 0.00 0.00 0.00 0.00 0.00 0.00 0.00 0.00 0.00 0.00 0.00 0.00 0.00 0.00 0.00 0.00 0.00 0.00 0.00 0.00 0.00 0.00 0.00 0.00 0.00 0.00 0.00 0.00 0.00 0.00 0.00 0.00 0.00 0.00 0.00 0.00 0.00 0.00
0.00 0.00 0.00 0.00 0.00 0.00 0.00 0.00 0.00 0.00 0.00 0.00 0.00 0.00 0.00 0.00 0.00 0.00 0.00 0.00 0.00 0.00 0.00 0.00 0.00 0.00 0.00 0.00 0.00 0.00 0.00 0.00 0.00 0.00 0.00 0.00 0.00 0.00 0.00 0.00 0.00 0.00 0.00 0.00 0.00 0.00 0.00 0.00 0.00 0.00 0.00 0.00
0.00 0.00 0.00 0.00 0.00 0.00 0.00 0.00 0.00 0.00 0.00 0.00 0.00 0.00 0.00 0.00 0.00 0.00 0.00 0.00 0.00 0.00 0.00 0.00 0.00 0.00 0.00 0.00 0.00 0.00 0.00 0.00 0.00 0.00 0.00 0.00 0.00 0.00 0.00 0.00 0.00 0.00 0.00 0.00 0.00 0.00 0.00 0.00 0.00 0.00 0.00 0.00
0.00 0.00 0.00 0.00 0.00 0.00 0.00 0.00 0.00 0.00 0.00 0.00 0.00 0.00 0.00 0.00 0.00 0.00 0.00 0.00 0.00 0.00 0.00 0.00 0.00 0.00 0.00 0.00 0.00 0.00 0.00 0.00 0.00 0.00 0.00 0.00 0.00 0.00 0.00 0.00 0.00 0.00 0.00 0.00 0.00 0.00 0.00 0.00 0.00 0.00 0.00 0.00
0.00 0.00 0.00 0.00 0.00 0.00 0.00 0.00 0.00 0.00 0.00 0.00 0.00 0.00 0.00 0.00 0.00 0.00 0.00 0.00 0.00 0.00 0.00 0.00 0.00 0.00 0.00 0.00 0.00 0.00 0.00 0.00 0.00 0.00 0.00 0.00 0.00 0.00 0.00 0.00 0.00 0.00 0.00 0.00 0.00 0.00 0.00 0.00 0.00 0.00 0.00 0.00
0.00 0.00 0.00 0.00 0.00 0.00 0.00 0.00 0.00 0.00 0.00 0.00 0.00 0.00 0.00 0.00 0.00 0.00 0.00 0.00 0.00 0.00 0.00 0.00 0.00 0.00 0.00 0.00 0.00 0.00 0.00 0.00 0.00 0.00 0.00 0.00 0.00 0.00 0.00 0.00 0.00 0.00 0.00 0.00 0.00 0.00 0.00 0.00 0.00 0.00 0.00 0.00
0.00 0.00 0.00 0.00 0.00 0.00 0.00 0.00 0.00 0.00 0.00 0.00 0.00 0.00 0.00 0.00 0.00 0.00 0.00 0.00 0.00 0.00 0.00 0.00 0.00 0.00 0.00 0.00 0.00 0.00 0.00 0.00 0.00 0.00 0.00 0.00 0.00 0.00 0.00 0.00 0.00 0.00 0.00 0.00 0.00 0.00 0.00 0.00 0.00 0.00 0.00 0.00
0.00 0.00 0.00 0.00 0.00 0.00 0.00 0.00 0.00 0.00 0.00 0.00 0.00 0.00 0.00 0.00 0.00 0.00 0.00 0.00 0.00 0.00 0.00 0.00 0.00 0.00 0.00 0.00 0.00 0.00 0.00 0.00 0.00 0.00 0.00 0.00 0.00 0.00 0.00 0.00 0.00 0.00 0.00 0.00 0.00 0.00 0.00 0.00 0.00 0.00 0.00 0.00
0.00 0.00 0.00 0.00 0.00 0.00 0.00 0.00 0.00 0.00 0.00 0.00 0.00 0.00 0.00 0.00 0.00 0.00 0.00 0.00 0.00 0.00 0.00 0.00 0.00 0.00 0.00 0.00 0.00 0.00 0.00 0.00 0.00 0.00 0.00 0.00 0.00 0.00 0.00 0.00 0.00 0.00 0.00 0.00 0.00 0.00 0.00 0.00 0.00 0.00 0.00 0.00
0.00 0.00 0.00 0.00 0.00 0.00 0.00 0.00 0.00 0.00 0.00 0.00 0.00 0.00 0.00 0.00 0.00 0.00 0.00 0.00 0.00 0.00 0.00 0.00 0.00 0.00 0.00 0.00 0.00 0.00 0.00 0.00 0.00 0.00 0.00 0.00 0.00 0.00 0.00 0.00 0.00 0.00 0.00 0.00 0.00 0.00 0.00 0.00 0.00 0.00 0.00 0.00
0.00 0.00 0.00 0.00 0.00 0.00 0.00 0.00 0.00 0.00 0.00 0.00 0.00 0.00 0.00 0.00 0.00 0.00 0.00 0.00 0.00 0.00 0.00 0.00 0.00 0.00 0.00 0.00 0.00 0.00 0.00 0.00 0.00 0.00 0.00 0.00 0.00 0.00 0.00 0.00 0.00 0.00 0.00 0.00 0.00 0.00 0.00 0.00 0.00 0.00 0.00 0.00
0.00 0.00 0.00 0.00 0.00 0.00 0.00 0.00 0.00 0.00 0.00 0.00 0.00 0.00 0.00 0.00 0.00 0.00 0.00 0.00 0.00 0.00 0.00 0.00 0.00 0.00 0.00 0.00 0.00 0.00 0.00 0.00 0.00 0.00 0.00 0.00 0.00 0.00 0.00 0.00 0.00 0.00 0.00 0.00 0.00 0.00 0.00 0.00 0.00 0.00 0.00 0.00
0.00 0.00 0.00 0.00 0.00 0.00 0.00 0.00 0.00 0.00 0.00 0.00 0.00 0.00 0.00 0.00 0.00 0.00 0.00 0.00 0.00 0.00 0.00 0.00 0.00 0.00 0.00 0.00 0.00 0.00 0.00 0.00 0.00 0.00 0.00 0.00 0.00 0.00 0.00 0.00 0.00 0.00 0.00 0.00 0.00 0.00 0.00 0.00 0.00 0.00 0.00 0.00
0.00 0.00 0.00 0.00 0.00 0.00 0.00 0.00 0.00 0.00 0.00 0.00 0.00 0.00 0.00 0.00 0.00 0.00 0.00 0.00 0.00 0.00 0.00 0.00 0.00 0.00 0.00 0.00 0.00 0.00 0.00 0.00 0.00 0.00 0.00 0.00 0.00 0.00 0.00 0.00 0.00 0.00 0.00 0.00 0.00 0.00 0.00 0.00 0.00 0.00 0.00 0.00
0.00 0.00 0.00 0.00 0.00 0.00 0.00 0.00 0.00 0.00 0.00 0.00 0.00 0.00 0.00 0.00 0.00 0.00 0.00 0.00 0.00 0.00 0.00 0.00 0.00 0.00 0.00 0.00 0.00 0.00 0.00 0.00 0.00 0.00 0.00 0.00 0.00 0.00 0.00 0.00 0.00 0.00 0.00 0.00 0.00 0.00 0.00 0.00 0.00 0.00 0.00 0.00
0.00 0.00 0.00 0.00 0.00 0.00 0.00 0.00 0.00 0.00 0.00 0.00 0.00 0.00 0.00 0.00 0.00 0.00 0.00 0.00 0.00 0.00 0.00 0.00 0.00 0.00 0.00 0.00 0.00 0.00 0.00 0.00 0.00 0.00 0.00 0.00 0.00 0.00 0.00 0.00 0.00 0.00 0.00 0.00 0.00 0.00 0.00 0.00 0.00 0.00 0.00 0.00
0.00 0.00 0.00 0.00 0.00 0.00 0.00 0.00 0.00 0.00 0.00 0.00 0.00 0.00 0.00 0.00 0.00 0.00 0.00 0.00 0.00 0.00 0.00 0.00 0.00 0.00 0.00 0.00 0.00 0.00 0.00 0.00 0.00 0.00 0.00 0.00 0.00 0.00 0.00 0.00 0.00 0.00 0.00 0.00 0.00 0.00 0.00 0.00 0.00 0.00 0.00 0.00
0.00 0.00 0.00 0.00 0.00 0.00 0.00 0.00 0.00 0.00 0.00 0.00 0.00 0.00 0.00 0.00 0.00 0.00 0.00 0.00 0.00 0.00 0.00 0.00 0.00 0.00 0.00 0.00 0.00 0.00 0.00 0.00 0.00 0.00 0.00 0.00 0.00 0.00 0.00 0.00 0.00 0.00 0.00 0.00 0.00 0.00 0.00 0.00 0.00 0.00 0.00 0.00
0.00 0.00 0.00 0.00 0.00 0.00 0.00 0.00 0.00 0.00 0.00 0.00 0.00 0.00 0.00 0.00 0.00 0.00 0.00 0.00 0.00 0.00 0.00 0.00 0.00 0.00 0.00 0.00 0.00 0.00 0.00 0.00 0.00 0.00 0.00 0.00 0.00 0.00 0.00 0.00 0.00 0.00 0.00 0.00 0.00 0.00 0.00 0.00 0.00 0.00 0.00 0.00
0.00 0.00 0.00 0.00 0.00 0.00 0.00 0.00 0.00 0.00 0.00 0.00 0.00 0.00 0.00 0.00 0.00 0.00 0.00 0.00 0.00 0.00 0.00 0.00 0.00 0.00 0.00 0.00 0.00 0.00 0.00 0.00 0.00 0.00 0.00 0.00 0.00 0.00 0.00 0.00 0.00 0.00 0.00 0.00 0.00 0.00 0.00 0.00 0.00 0.00 0.00 0.00
0.00 0.00 0.00 0.00 0.00 0.00 0.00 0.00 0.00 0.00 0.00 0.00 0.00 0.00 0.00 0.00 0.00 0.00 0.00 0.00 0.00 0.00 0.00 0.00 0.00 0.00 0.00 0.00 0.00 0.00 0.00 0.00 0.00 0.00 0.00 0.00 0.00 0.00 0.00 0.00 0.00 0.00 0.00 0.00 0.00 0.00 0.00 0.00 0.00 0.00 0.00 0.00
0.00 0.00 0.00 0.00 0.00 0.00 0.00 0.00 0.00 0.00 0.00 0.00 0.00 0.00 0.00 0.00 0.00 0.00 0.00 0.00 0.00 0.00 0.00 0.00 0.00 0.00 0.00 0.00 0.00 0.00 0.00 0.00 0.00 0.00 0.00 0.00 0.00 0.00 0.00 0.00 0.00 0.00 0.00 0.00 0.00 0.00 0.00 0.00 0.00 0.00 0.00 0.00
0.00 0.00 0.00 0.00 0.00 0.00 0.00 0.00 0.00 0.00 0.00 0.00 0.00 0.00 0.00 0.00 0.00 0.00 0.00 0.00 0.00 0.00 0.00 0.00 0.00 0.00 0.00 0.00 0.00 0.00 0.00 0.00 0.00 0.00 0.00 0.00 0.00 0.00 0.00 0.00 0.00 0.00 0.00 0.00 0.00 0.00 0.00 0.00 0.00 0.00 0.00 0.00
0.00 0.00 0.00 0.00 0.00 0.00 0.00 0.00 0.00 0.00 0.00 0.00 0.00 0.00 0.00 0.00 0.00 0.00 0.00 0.00 0.00 0.00 0.00 0.00 0.00 0.00 0.00 0.00 0.00 0.00 0.00 0.00 0.00 0.00 0.00 0.00 0.00 0.00 0.00 0.00 0.00 0.00 0.00 0.00 0.00 0.00 0.00 0.00 0.00 0.00 0.00 0.00
0.00 0.00 0.00 0.00 0.00 0.00 0.00 0.00 0.00 0.00 0.00 0.00 0.00 0.00 0.00 0.00 0.00 0.00 0.00 0.00 0.00 0.00 0.00 0.00 0.00 0.00 0.00 0.00 0.00 0.00 0.00 0.00 0.00 0.00 0.00 0.00 0.00 0.00 0.00 0.00 0.00 0.00 0.00 0.00 0.00 0.00 0.00 0.00 0.00 0.00 0.00 0.00
0.00 0.00 0.00 0.00 0.00 0.00 0.00 0.00 0.00 0.00 0.00 0.00 0.00 0.00 0.00 0.00 0.00 0.00 0.00 0.00 0.00 0.00 0.00 0.00 0.00 0.00 0.00 0.00 0.00 0.00 0.00 0.00 0.00 0.00 0.00 0.00 0.00 0.00 0.00 0.00 0.00 0.00 0.00 0.00 0.00 0.00 0.00 0.00 0.00 0.00 0.00 0.00
0.00 0.00 0.00 0.00 0.00 0.00 0.00 0.00 0.00 0.00 0.00 0.00 0.00 0.00 0.00 0.00 0.00 0.00 0.00 0.00 0.00 0.00 0.00 0.00 0.00 0.00 0.00 0.00 0.00 0.00 0.00 0.00 0.00 0.00 0.00 0.00 0.00 0.00 0.00 0.00 0.00 0.00 0.00 0.00 0.00 0.00 0.00 0.00 0.00 0.00 0.00 0.00
MSLP
1021.98 1022.18 1022.34 1022.62 1022.94 1023.26 1023.58 1023.86 1024.06 1024.22 1024.34 1024.46 1024.50 1024.58 1024.66 1024.70 1024.74 1024.78 1024.82 1024.86 1024.86 1024.82 1025.02 1025.06 1025.02 1025.10 1025.18 1025.26 1025.30 1025.30 1025.38 1025.42 1025.38 1025.38 1025.38 1025.42 1025.50 1025.66 1025.82 1025.98 1026.10 1026.26 1026.42 1026.54 1026.54 1026.58 1026.58 1026.70 1026.66 1026.62 1026.66 1026.74
1022.38 1022.54 1022.74 1022.94 1023.22 1023.50 1023.82 1024.10 1024.34 1024.50 1024.62 1024.74 1024.86 1024.98 1025.06 1025.10 1025.10 1025.18 1025.22 1025.22 1025.18 1025.18 1025.30 1025.42 1025.34 1025.34 1025.38 1025.46 1025.54 1025.62 1025.70 1025.74 1025.78 1025.78 1025.74 1025.74 1025.86 1025.98 1026.14 1026.30 1026.42 1026.54 1026.70 1026.90 1026.98 1027.06 1027.14 1027.22 1027.18 1027.10 1027.10 1027.10
1022.78 1022.98 1023.18 1023.30 1023.54 1023.82 1024.06 1024.38 1024.58 1024.74 1024.94 1025.10 1025.22 1025.30 1025.38 1025.46 1025.54 1025.58 1025.62 1025.58 1025.54 1025.50 1025.58 1025.70 1025.74 1025.62 1025.58 1025.66 1025.74 1025.86 1025.94 1026.06 1026.18 1026.26 1026.22 1026.14 1026.14 1026.30 1026.46 1026.58 1026.66 1026.86 1027.02 1027.26 1027.46 1027.58 1027.70 1027.74 1027.74 1027.70 1027.62 1027.54
1023.18 1023.38 1023.58 1023.74 1023.94 1024.14 1024.42 1024.66 1024.90 1025.10 1025.34 1025.54 1025.66 1025.74 1025.82 1025.90 1026.02 1025.98 1025.94 1025.94 1025.98 1026.02 1025.94 1025.98 1026.02 1025.98 1025.90 1025.94 1026.02 1026.14 1026.22 1026.26 1026.42 1026.62 1026.66 1026.78 1026.82 1026.82 1026.82 1026.82 1026.98 1027.22 1027.42 1027.66 1027.86 1028.06 1028.18 1028.30 1028.34 1028.38 1028.34 1028.22
1023.54 1023.74 1023.94 1024.10 1024.26 1024.54 1024.78 1024.98 1025.10 1025.30 1025.54 1025.74 1025.90 1026.02 1026.14 1026.30 1026.46 1026.58 1026.62 1026.62 1026.50 1026.46 1026.46 1026.34 1026.26 1026.26 1026.26 1026.26 1026.30 1026.38 1026.46 1026.54 1026.74 1026.82 1026.90 1027.02 1027.18 1027.34 1027.42 1027.46 1027.42 1027.58 1027.82 1028.06 1028.34 1028.58 1028.82 1028.98 1029.06 1029.06 1028.94 1028.74
1024.02 1024.26 1024.50 1024.70 1024.82 1024.98 1025.10 1025.30 1025.46 1025.66 1025.90 1026.06 1026.18 1026.30 1026.46 1026.62 1026.70 1026.90 1027.02 1027.06 1027.02 1026.98 1026.86 1026.78 1026.70 1026.66 1026.54 1026.54 1026.58 1026.66 1026.78 1026.90 1026.98 1027.02 1027.14 1027.26 1027.42 1027.58 1027.78 1028.02 1028.26 1028.34 1028.30 1028.46 1028.74 1029.02 1029.30 1029.54 1029.54 1029.46 1029.38 1029.30
1024.42 1024.62 1024.86 1025.02 1025.10 1025.18 1025.34 1025.54 1025.74 1025.94 1026.18 1026.38 1026.50 1026.62 1026.70 1026.82 1026.98 1027.10 1027.22 1027.34 1027.34 1027.34 1027.26 1027.26 1027.26 1027.26 1027.26 1027.18 1027.14 1027.10 1027.10 1027.18 1027.22 1027.34 1027.50 1027.62 1027.78 1028.02 1028.30 1028.54 1028.74 1028.90 1029.10 1029.14 1029.22 1029.46 1029.70 1029.82 1029.82 1029.82 1029.70 1029.54
1024.66 1024.90 1025.06 1025.26 1025.38 1025.50 1025.62 1025.82 1025.98 1026.14 1026.34 1026.54 1026.66 1026.78 1026.86 1027.02 1027.18 1027.34 1027.50 1027.54 1027.66 1027.78 1027.94 1027.94 1027.82 1027.78 1027.78 1027.82 1027.82 1027.86 1027.74 1027.62 1027.70 1027.78 1027.90 1028.10 1028.34 1028.58 1028.74 1028.82 1029.02 1029.18 1029.38 1029.54 1029.70 1029.78 1029.86 1029.94 1030.02 1029.98 1029.94 1029.78
1024.74 1025.02 1025.22 1025.42 1025.54 1025.62 1025.74 1025.98 1026.14 1026.30 1026.46 1026.66 1026.82 1026.94 1027.06 1027.22 1027.38 1027.66 1027.82 1027.98 1028.10 1028.26 1028.34 1028.38 1028.42 1028.42 1028.42 1028.38 1028.38 1028.34 1028.30 1028.30 1028.38 1028.50 1028.70 1028.78 1028.86 1028.98 1029.06 1029.14 1029.38 1029.50 1029.62 1029.78 1029.82 1029.90 1029.98 1030.02 1030.10 1030.10 1030.02 1029.94
1024.70 1025.02 1025.26 1025.50 1025.62 1025.70 1025.94 1026.14 1026.26 1026.38 1026.54 1026.74 1026.94 1027.10 1027.22 1027.38 1027.58 1027.82 1027.98 1028.14 1028.34 1028.50 1028.54 1028.62 1028.70 1028.74 1028.70 1028.66 1028.70 1028.66 1028.58 1028.58 1028.62 1028.78 1028.90 1029.06 1029.18 1029.34 1029.42 1029.54 1029.70 1029.78 1029.86 1029.90 1029.94 1029.98 1030.06 1030.14 1030.18 1030.18 1030.14 1030.02
1024.70 1025.06 1025.26 1025.42 1025.62 1025.70 1026.06 1026.22 1026.34 1026.50 1026.62 1026.82 1027.02 1027.18 1027.34 1027.46 1027.70 1027.90 1028.10 1028.30 1028.46 1028.62 1028.74 1028.82 1028.90 1028.90 1028.86 1028.82 1028.82 1028.86 1028.70 1028.74 1028.82 1028.90 1029.06 1029.22 1029.46 1029.66 1029.74 1029.90 1029.98 1030.02 1030.06 1030.06 1030.06 1030.14 1030.22 1030.26 1030.26 1030.22 1030.18 1030.06
1024.78 1025.10 1025.26 1025.38 1025.54 1025.82 1026.02 1026.22 1026.42 1026.58 1026.70 1026.86 1027.10 1027.30 1027.46 1027.58 1027.74 1027.86 1028.14 1028.38 1028.54 1028.78 1028.86 1028.98 1029.06 1029.02 1028.98 1028.98 1028.98 1029.02 1028.90 1028.82 1028.90 1028.98 1029.14 1029.34 1029.58 1029.82 1029.98 1030.10 1030.18 1030.26 1030.26 1030.30 1030.30 1030.30 1030.34 1030.34 1030.26 1030.22 1030.14 1030.10
1024.74 1025.06 1025.22 1025.42 1025.66 1025.86 1026.02 1026.34 1026.50 1026.62 1026.70 1026.90 1027.18 1027.42 1027.58 1027.70 1027.82 1027.98 1028.14 1028.42 1028.66 1028.82 1028.98 1029.10 1029.14 1029.10 1029.14 1029.14 1029.14 1029.14 1029.14 1029.06 1029.10 1029.18 1029.30 1029.46 1029.66 1029.86 1030.02 1030.14 1030.30 1030.42 1030.50 1030.54 1030.54 1030.46 1030.42 1030.34 1030.26 1030.18 1030.14 1030.10
1024.74 1025.06 1025.26 1025.50 1025.70 1025.90 1026.10 1026.38 1026.58 1026.66 1026.78 1027.02 1027.22 1027.54 1027.70 1027.82 1027.90 1027.94 1028.14 1028.42 1028.70 1028.82 1029.06 1029.22 1029.26 1029.22 1029.26 1029.26 1029.30 1029.26 1029.22 1029.30 1029.30 1029.42 1029.54 1029.62 1029.74 1029.86 1029.98 1030.10 1030.30 1030.50 1030.66 1030.74 1030.74 1030.62 1030.46 1030.34 1030.26 1030.22 1030.18 1030.18
1024.74 1025.06 1025.22 1025.46 1025.82 1026.06 1026.18 1026.34 1026.58 1026.74 1026.86 1027.10 1027.34 1027.58 1027.74 1027.90 1027.94 1028.02 1028.18 1028.42 1028.70 1028.94 1029.10 1029.26 1029.30 1029.30 1029.34 1029.34 1029.42 1029.42 1029.38 1029.42 1029.46 1029.58 1029.62 1029.70 1029.78 1029.90 1030.06 1030.22 1030.38 1030.54 1030.70 1030.82 1030.82 1030.70 1030.54 1030.46 1030.34 1030.26 1030.26 1030.30
1024.74 1025.06 1025.22 1025.54 1025.94 1026.18 1026.26 1026.34 1026.62 1026.78 1026.90 1027.18 1027.46 1027.62 1027.82 1027.94 1028.02 1028.06 1028.26 1028.42 1028.70 1028.94 1029.10 1029.26 1029.34 1029.38 1029.34 1029.46 1029.50 1029.50 1029.50 1029.58 1029.74 1029.78 1029.86 1029.94 1029.98 1030.06 1030.14 1030.30 1030.46 1030.58 1030.66 1030.78 1030.82 1030.78 1030.62 1030.50 1030.38 1030.38 1030.38 1030.30
1024.66 1024.98 1025.22 1025.58 1025.98 1026.22 1026.26 1026.42 1026.66 1026.82 1026.98 1027.26 1027.50 1027.66 1027.82 1027.94 1028.02 1028.10 1028.18 1028.46 1028.62 1028.90 1029.10 1029.26 1029.34 1029.38 1029.46 1029.54 1029.54 1029.58 1029.62 1029.70 1029.86 1029.90 1029.94 1030.06 1030.14 1030.18 1030.22 1030.30 1030.50 1030.66 1030.74 1030.70 1030.78 1030.78 1030.70 1030.54 1030.46 1030.46 1030.42 1030.30
1024.58 1024.90 1025.18 1025.62 1026.02 1026.26 1026.34 1026.50 1026.66 1026.86 1027.06 1027.26 1027.54 1027.70 1027.86 1027.94 1028.02 1028.10 1028.26 1028.42 1028.74 1028.94 1029.10 1029.30 1029.34 1029.38 1029.50 1029.58 1029.58 1029.62 1029.66 1029.78 1029.94 1030.02 1030.10 1030.18 1030.18 1030.26 1030.30 1030.38 1030.58 1030.58 1030.62 1030.74 1030.78 1030.82 1030.78 1030.66 1030.58 1030.54 1030.42 1030.30
1024.62 1024.78 1025.02 1025.58 1026.06 1026.38 1026.42 1026.58 1026.74 1026.90 1027.06 1027.34 1027.54 1027.70 1027.86 1027.98 1028.02 1028.14 1028.30 1028.50 1028.66 1028.90 1029.10 1029.22 1029.34 1029.42 1029.50 1029.58 1029.62 1029.62 1029.78 1029.86 1030.06 1030.18 1030.26 1030.26 1030.26 1030.46 1030.54 1030.62 1030.66 1030.66 1030.66 1030.66 1030.78 1030.82 1030.82 1030.70 1030.66 1030.58 1030.42 1030.42
1024.66 1024.78 1025.06 1025.58 1026.02 1026.38 1026.58 1026.70 1026.82 1026.94 1027.10 1027.34 1027.58 1027.70 1027.86 1027.98 1028.06 1028.14 1028.34 1028.54 1028.70 1028.86 1029.06 1029.18 1029.30 1029.42 1029.50 1029.54 1029.62 1029.70 1029.82 1029.94 1030.10 1030.34 1030.42 1030.50 1030.38 1030.26 1030.54 1030.50 1030.66 1030.82 1030.66 1030.74 1030.78 1030.90 1030.86 1030.74 1030.62 1030.54 1030.50 1030.46
1024.74 1024.90 1025.18 1025.62 1026.02 1026.42 1026.66 1026.82 1026.90 1026.98 1027.14 1027.38 1027.58 1027.74 1027.86 1027.94 1028.02 1028.18 1028.30 1028.54 1028.70 1028.78 1029.02 1029.18 1029.26 1029.38 1029.42 1029.54 1029.62 1029.78 1029.90 1030.02 1030.22 1030.34 1030.50 1030.66 1030.70 1030.58 1030.50 1030.58 1030.62 1030.70 1030.86 1030.78 1030.86 1030.90 1030.86 1030.70 1030.54 1030.50 1030.54 1030.54
1024.70 1024.94 1025.26 1025.74 1026.10 1026.42 1026.74 1026.98 1027.02 1027.02 1027.14 1027.38 1027.58 1027.70 1027.82 1027.90 1028.02 1028.14 1028.30 1028.50 1028.70 1028.82 1028.98 1029.14 1029.18 1029.30 1029.42 1029.54 1029.70 1029.86 1029.98 1030.18 1030.34 1030.46 1030.50 1030.66 1030.98 1030.86 1030.58 1030.66 1030.70 1030.74 1031.02 1031.10 1030.94 1030.86 1030.82 1030.74 1030.58 1030.50 1030.58 1030.54
1024.78 1025.02 1025.38 1025.90 1026.22 1026.54 1026.82 1027.06 1027.18 1027.10 1027.22 1027.42 1027.58 1027.70 1027.74 1027.86 1027.98 1028.10 1028.26 1028.46 1028.62 1028.74 1028.94 1029.10 1029.22 1029.26 1029.38 1029.54 1029.74 1029.86 1030.06 1030.22 1030.34 1030.46 1030.62 1030.70 1031.06 1031.30 1031.34 1031.34 1031.54 1031.50 1031.58 1031.18 1031.10 1030.90 1030.74 1030.70 1030.58 1030.58 1030.50 1030.50
1024.66 1024.94 1025.22 1025.86 1026.42 1026.70 1026.86 1027.06 1027.14 1027.22 1027.22 1027.42 1027.58 1027.66 1027.70 1027.82 1027.98 1028.06 1028.22 1028.42 1028.58 1028.74 1028.90 1029.02 1029.14 1029.22 1029.38 1029.54 1029.70 1029.86 1030.02 1030.22 1030.34 1030.42 1030.54 1030.82 1030.90 1031.18 1031.46 1031.74 1031.82 1031.86 1031.58 1031.30 1031.14 1030.78 1030.74 1030.74 1030.62 1030.46 1030.42 1030.42
1023.98 1024.42 1025.26 1025.82 1025.90 1026.10 1026.54 1026.74 1027.02 1027.18 1027.26 1027.42 1027.58 1027.66 1027.70 1027.82 1027.90 1028.02 1028.14 1028.38 1028.54 1028.66 1028.82 1028.98 1029.10 1029.22 1029.38 1029.58 1029.74 1029.90 1030.02 1030.18 1030.30 1030.46 1030.50 1030.70 1030.98 1031.06 1030.90 1031.42 1032.02 1031.86 1031.90 1030.78 1030.34 1030.82 1030.62 1030.46 1030.54 1030.42 1030.34 1030.34
1023.42 1023.50 1023.50 1024.02 1024.98 1025.58 1026.14 1026.42 1026.70 1026.98 1027.18 1027.30 1027.54 1027.66 1027.70 1027.82 1027.94 1027.98 1028.06 1028.26 1028.46 1028.62 1028.74 1028.86 1029.02 1029.14 1029.30 1029.54 1029.78 1030.02 1030.14 1030.18 1030.26 1030.46 1030.66 1030.74 1030.94 1031.58 1031.38 1031.74 1032.42 1032.22 1031.38 1030.06 1029.58 1029.50 1029.86 1030.22 1030.30 1030.34 1030.38 1030.30
1023.14 1023.46 1023.82 1024.26 1024.98 1025.54 1026.10 1026.50 1026.62 1026.82 1026.98 1027.22 1027.54 1027.70 1027.78 1027.86 1027.98 1028.02 1028.10 1028.26 1028.42 1028.54 1028.70 1028.74 1028.82 1029.06 1029.30 1029.54 1029.70 1029.90 1030.06 1030.18 1030.30 1030.50 1030.58 1030.66 1030.58 1031.26 1031.94 1032.22 1032.42 1032.30 1032.06 1029.74 1031.46 1030.94 1030.06 1029.10 1029.18 1029.90 1030.22 1030.42
1023.18 1023.54 1023.98 1024.62 1025.14 1025.86 1026.10 1026.42 1026.82 1027.06 1027.22 1027.38 1027.62 1027.78 1027.86 1027.98 1028.02 1028.06 1028.14 1028.26 1028.38 1028.54 1028.66 1028.66 1028.74 1028.98 1029.22 1029.50 1029.66 1029.74 1029.86 1030.10 1030.26 1030.42 1030.58 1030.70 1030.90 1030.82 1030.42 1032.42 1032.06 1032.54 1032.50 1032.22 1030.70 1027.70 1029.26 1029.94 1030.14 1028.26 1028.38 1030.46
1023.14 1023.70 1024.34 1024.98 1025.70 1026.18 1026.50 1026.90 1027.10 1027.22 1027.42 1027.38 1027.54 1027.78 1027.86 1027.94 1028.10 1028.14 1028.22 1028.30 1028.46 1028.58 1028.66 1028.70 1028.78 1028.90 1029.14 1029.42 1029.70 1029.86 1029.98 1030.10 1030.22 1030.38 1030.54 1030.66 1030.74 1030.94 1030.02 1030.82 1032.54 1032.54 1032.74 1032.82 1033.10 1030.50 1029.78 1029.30 1029.14 1028.22 1029.38 1031.14
1022.98 1023.26 1023.58 1024.54 1025.34 1025.98 1026.38 1026.66 1026.66 1026.30 1026.18 1026.78 1027.10 1027.30 1027.58 1027.94 1028.10 1028.22 1028.26 1028.34 1028.46 1028.62 1028.70 1028.78 1028.86 1029.02 1029.18 1029.46 1029.78 1030.02 1030.22 1030.42 1030.50 1030.46 1030.50 1030.74 1030.74 1030.78 1031.18 1031.06 1031.82 1031.98 1032.90 1032.98 1032.82 1033.14 1032.50 1031.18 1027.70 1027.58 1030.54 1030.42
1022.70 1023.14 1023.26 1023.06 1023.46 1024.06 1024.74 1025.06 1025.70 1025.86 1026.22 1026.38 1026.90 1027.30 1027.58 1027.86 1028.14 1028.30 1028.34 1028.42 1028.54 1028.66 1028.74 1028.86 1028.94 1029.10 1029.30 1029.54 1029.82 1030.14 1030.34 1030.42 1030.50 1030.62 1030.62 1030.86 1030.82 1030.90 1031.02 1031.10 1030.54 1031.66 1032.18 1032.74 1032.94 1033.30 1033.22 1033.06 1032.94 1031.82 1029.70 1027.70
Thickness
5614 5612 5611 5608 5606 5603 5600 5597 5594 5592 5590 5589 5587 5585 5583 5582 5581 5580 5579 5578 5578 5577 5575 5574 5572 5571 5570 5568 5567 5566 5565 5564 5564 5563 5563 5562 5561 5560 5559 5558 5557 5556 5555 5554 5554 5553 5552 5552 5552 5552 5552 5553
5610 5608 5606 5605 5602 5600 5596 5594 5592 5590 5587 5585 5583 5582 5580 5579 5578 5577 5576 5575 5574 5573 5572 5570 5569 5569 5567 5566 5564 5563 5562 5561 5560 5559 5559 5558 5557 5556 5555 5554 5553 5552 5551 5549 5548 5547 5546 5546 5546 5546 5547 5547
5605 5604 5602 5600 5599 5596 5593 5591 5589 5587 5584 5582 5580 5578 5577 5576 5575 5574 5573 5572 5571 5570 5568 5567 5566 5565 5564 5563 5561 5559 5558 5557 5556 5555 5554 5554 5554 5553 5551 5550 5549 5548 5546 5544 5543 5542 5540 5540 5540 5540 5540 5541
5601 5599 5598 5596 5594 5592 5590 5587 5586 5584 5581 5579 5577 5576 5574 5573 5572 5571 5570 5568 5567 5566 5564 5563 5562 5561 5560 5559 5557 5556 5555 5553 5552 5550 5549 5549 5548 5547 5547 5546 5545 5543 5541 5539 5538 5536 5535 5534 5534 5533 5534 5533
5597 5595 5594 5592 5590 5588 5586 5585 5583 5581 5578 5576 5574 5573 5571 5570 5569 5567 5566 5564 5563 5562 5560 5560 5558 5557 5556 5555 5554 5552 5551 5549 5547 5547 5546 5544 5543 5543 5542 5542 5540 5538 5536 5534 5532 5530 5528 5527 5527 5527 5526 5526
5593 5591 5590 5589 5587 5585 5584 5583 5580 5578 5576 5573 5572 5570 5569 5567 5566 5564 5562 5560 5559 5558 5557 5555 5554 5553 5552 5551 5550 5548 5547 5545 5544 5543 5542 5541 5540 5539 5537 5536 5535 5533 5531 5529 5527 5524 5523 5522 5521 5521 5520 5520
5589 5587 5586 5585 5584 5583 5581 5580 5577 5575 5573 5571 5569 5568 5566 5565 5563 5561 5559 5557 5555 5554 5552 5551 5549 5548 5546 5546 5545 5543 5543 5541 5540 5539 5538 5537 5535 5534 5532 5531 5530 5528 5526 5524 5522 5520 5518 5518 5516 5516 5515 5515
5585 5584 5583 5582 5581 5580 5579 5577 5574 5572 5570 5568 5566 5565 5564 5562 5560 5558 5556 5554 5553 5551 5549 5547 5545 5544 5543 5541 5539 5539 5539 5538 5536 5534 5533 5531 5530 5529 5528 5527 5524 5522 5521 5519 5518 5516 5515 5513 5512 5511 5510 5510
5582 5581 5580 5578 5578 5577 5576 5574 5572 5570 5568 5565 5563 5562 5561 5559 5557 5555 5553 5551 5549 5547 5545 5544 5542 5541 5539 5538 5536 5534 5534 5533 5531 5530 5528 5527 5525 5524 5523 5521 5519 5518 5516 5515 5514 5512 5511 5509 5507 5506 5506 5505
5580 5579 5577 5576 5575 5574 5572 5571 5569 5567 5565 5563 5561 5559 5558 5556 5554 5552 5550 5548 5546 5544 5542 5540 5539 5537 5536 5534 5532 5530 5530 5529 5527 5526 5524 5522 5520 5519 5518 5516 5514 5513 5512 5510 5509 5508 5506 5505 5503 5502 5502 5501
5578 5576 5574 5574 5573 5572 5570 5568 5566 5565 5563 5560 5558 5557 5555 5553 5552 5550 5548 5545 5543 5541 5539 5537 5535 5533 5532 5531 5529 5527 5527 5525 5524 5522 5521 5518 5516 5514 5512 5511 5510 5508 5507 5506 5505 5503 5502 5500 5500 5499 5498 5497
5575 5573 5572 5572 5570 5569 5567 5565 5564 5562 5561 5558 5556 5554 5552 5551 5549 5548 5546 5543 5541 5538 5536 5534 5532 5531 5529 5528 5526 5524 5523 5522 5521 5519 5517 5515 5512 5510 5508 5507 5505 5504 5502 5501 5500 5499 5498 5497 5496 5495 5494 5493
5573 5571 5570 5569 5568 5566 5564 5563 5561 5559 5558 5556 5553 5551 5549 5548 5547 5546 5544 5541 5538 5536 5534 5531 5530 5528 5526 5525 5523 5521 5520 5519 5517 5515 5513 5511 5509 5507 5504 5503 5501 5499 5497 5496 5495 5494 5494 5493 5493 5492 5491 5490
5571 5569 5568 5567 5565 5563 5562 5560 5558 5557 5556 5553 5551 5548 5546 5545 5544 5543 5541 5539 5536 5534 5532 5529 5527 5526 5524 5522 5520 5518 5517 5515 5514 5512 5510 5507 5505 5503 5501 5499 5497 5495 5493 5491 5490 5490 5490 5489 5488 5487 5486 5485
5568 5567 5566 5564 5562 5561 5559 5557 5555 5554 5553 5551 5548 5546 5543 5542 5541 5541 5539 5537 5534 5531 5529 5526 5525 5523 5521 5519 5517 5516 5514 5512 5510 5508 5506 5504 5502 5500 5498 5495 5493 5491 5489 5487 5486 5486 5485 5485 5484 5483 5481 5480
5565 5564 5563 5561 5559 5557 5556 5555 5553 5551 5550 5547 5545 5543 5541 5539 5539 5538 5536 5534 5532 5529 5527 5524 5522 5520 5519 5517 5515 5513 5511 5509 5506 5504 5502 5500 5499 5496 5494 5492 5489 5487 5485 5484 5482 5482 5481 5481 5480 5478 5477 5475
5563 5562 5560 5558 5556 5554 5553 5552 5550 5548 5547 5544 5542 5540 5538 5536 5536 5535 5534 5532 5529 5527 5524 5522 5520 5518 5516 5514 5512 5510 5508 5505 5503 5501 5499 5496 5494 5492 5490 5488 5485 5483 5481 5480 5478 5477 5476 5476 5475 5473 5472 5471
5560 5559 5558 5555 5552 5551 5550 5549 5547 5545 5543 5541 5539 5537 5535 5534 5533 5532 5531 5529 5526 5524 5522 5519 5517 5515 5513 5510 5509 5507 5505 5502 5500 5497 5495 5493 5491 5488 5486 5484 5482 5480 5478 5476 5474 5472 5471 5471 5470 5468 5467 5466
5558 5557 5556 5552 5549 5547 5547 5546 5543 5542 5540 5538 5536 5534 5533 5531 5530 5529 5527 5526 5523 5521 5519 5516 5515 5512 5510 5508 5506 5504 5501 5499 5496 5493 5491 5489 5488 5485 5482 5480 5478 5475 5474 5472 5469 5467 5466 5466 5465 5463 5462 5461
5554 5554 5553 5549 5547 5544 5543 5542 5540 5539 5538 5535 5533 5531 5529 5528 5527 5526 5524 5522 5520 5519 5516 5514 5512 5510 5507 5506 5503 5501 5499 5495 5493 5490 5487 5486 5484 5482 5479 5476 5474 5471 5469 5467 5465 5463 5462 5461 5460 5459 5457 5455
5551 5551 5549 5546 5543 5541 5539 5538 5537 5536 5535 5533 5530 5528 5527 5525 5524 5523 5521 5519 5517 5515 5513 5511 5510 5507 5505 5503 5501 5498 5495 5492 5489 5487 5484 5481 5480 5478 5476 5473 5471 5468 5465 5463 5461 5458 5457 5456 5455 5454 5452 5450
5548 5547 5545 5542 5539 5538 5536 5534 5533 5533 5531 5529 5527 5525 5524 5522 5521 5520 5518 5516 5514 5512 5510 5509 5507 5505 5503 5500 5497 5495 5492 5489 5486 5484 5481 5478 5475 5474 5472 5469 5466 5463 5461 5458 5455 5454 5452 5451 5451 5449 5446 5445
5545 5544 5542 5538 5535 5533 5532 5530 5530 5529 5528 5526 5524 5522 5521 5519 5518 5517 5515 5513 5511 5509 5507 5506 5504 5502 5500 5497 5494 5491 5488 5485 5483 5480 5478 5475 5472 5469 5467 5464 5461 5458 5456 5453 5451 5450 5448 5446 5445 5444 5443 5440
5543 5541 5539 5535 5532 5530 5528 5527 5527 5525 5525 5523 5520 5519 5518 5516 5515 5513 5512 5510 5507 5506 5504 5502 5501 5500 5497 5494 5491 5488 5485 5482 5479 5477 5474 5472 5468 5465 5463 5458 5456 5453 5451 5450 5447 5444 5443 5442 5441 5439 5438 5435
5544 5543 5539 5534 5531 5529 5527 5525 5524 5523 5521 5519 5517 5516 5515 5513 5512 5510 5509 5506 5505 5503 5501 5499 5498 5496 5493 5491 5488 5484 5482 5479 5476 5473 5471 5468 5464 5461 5459 5455 5451 5448 5447 5447 5446 5443 5440 5437 5436 5435 5434 5431
5545 5544 5541 5537 5532 5528 5526 5524 5523 5521 5519 5517 5514 5512 5511 5510 5508 5507 5506 5503 5502 5499 5498 5496 5495 5493 5490 5487 5484 5481 5478 5475 5473 5470 5467 5465 5461 5456 5453 5449 5445 5443 5445 5446 5444 5440 5438 5436 5433 5430 5428 5426
5542 5540 5539 5535 5530 5526 5523 5520 5519 5518 5516 5514 5510 5509 5507 5506 5505 5503 5502 5500 5498 5497 5495 5494 5492 5489 5487 5484 5481 5478 5475 5472 5469 5466 5463 5460 5458 5453 5448 5443 5440 5439 5439 5440 5437 5434 5437 5435 5432 5431 5425 5420
5538 5536 5533 5530 5525 5521 5519 5516 5514 5512 5510 5509 5506 5505 5503 5502 5501 5500 5498 5497 5495 5493 5492 5491 5489 5486 5484 5480 5478 5475 5472 5469 5466 5463 5460 5456 5454 5452 5448 5441 5434 5433 5431 5430 5431 5433 5433 5424 5424 5434 5425 5414
5534 5532 5529 5524 5519 5514 5512 5510 5509 5508 5507 5505 5503 5502 5500 5498 5497 5496 5494 5493 5491 5490 5488 5487 5486 5483 5480 5477 5473 5471 5468 5465 5462 5460 5456 5453 5449 5447 5447 5440 5431 5428 5425 5422 5422 5424 5427 5425 5428 5430 5415 5408
5531 5530 5528 5524 5519 5514 5512 5509 5509 5510 5508 5505 5502 5500 5498 5495 5493 5492 5490 5489 5487 5485 5484 5483 5482 5479 5477 5473 5470 5466 5463 5460 5458 5456 5453 5449 5446 5442 5441 5437 5430 5425 5420 5417 5413 5411 5414 5418 5422 5420 5408 5408
5529 5527 5527 5526 5523 5518 5514 5512 5510 5509 5507 5504 5500 5497 5494 5491 5489 5488 5486 5485 5483 5481 5480 5479 5478 5475 5473 5470 5466 5463 5459 5456 5453 5451 5449 5446 5442 5439 5436 5433 5431 5424 5416 5415 5411 5403 5402 5401 5400 5402 5402 5403